TimeCDT,TemperatureF,Dew PointF,Humidity,Sea Level PressureIn,VisibilityMPH,Wind Direction,Wind SpeedMPH,Gust SpeedMPH,PrecipitationIn,Events,Conditions,WindDirDegrees,DateUTC
12:53 AM,77.0,71.1,82,29.94,10.0,SSW,4.6,-,N/A,,Clear,210,2013-06-18 05:53:00
1:53 AM,77.0,71.1,82,29.94,10.0,SW,3.5,-,N/A,,Clear,230,2013-06-18 06:53:00
2:53 AM,75.0,71.1,87,29.94,10.0,SSW,3.5,-,N/A,,Clear,210,2013-06-18 07:53:00
3:53 AM,73.9,71.1,91,29.93,10.0,South,4.6,-,N/A,,Mostly Cloudy,190,2013-06-18 08:53:00
4:53 AM,73.0,71.1,93,29.94,10.0,South,4.6,-,N/A,,Clear,180,2013-06-18 09:53:00
5:53 AM,73.0,71.1,93,29.95,10.0,Calm,Calm,-,N/A,,Clear,0,2013-06-18 10:53:00
6:53 AM,73.9,72.0,93,29.97,10.0,Calm,Calm,-,N/A,,Partly Cloudy,0,2013-06-18 11:53:00
7:53 AM,75.0,72.0,90,30.01,10.0,Calm,Calm,-,N/A,,Mostly Cloudy,0,2013-06-18 12:53:00
8:53 AM,80.1,73.0,79,30.01,10.0,West,9.2,-,N/A,,Mostly Cloudy,280,2013-06-18 13:53:00
9:53 AM,82.0,73.0,74,30.00,10.0,West,6.9,-,N/A,,Mostly Cloudy,260,2013-06-18 14:53:00
10:53 AM,82.9,71.1,67,29.98,10.0,WSW,6.9,-,N/A,,Partly Cloudy,240,2013-06-18 15:53:00
11:53 AM,84.9,71.1,63,29.97,10.0,SW,10.4,-,N/A,,Partly Cloudy,230,2013-06-18 16:53:00
12:53 PM,87.1,71.1,59,29.98,10.0,SW,9.2,-,N/A,,Mostly Cloudy,230,2013-06-18 17:53:00
1:53 PM,88.0,70.0,55,29.95,10.0,SW,6.9,-,N/A,,Scattered Clouds,230,2013-06-18 18:53:00
2:53 PM,90.0,69.1,50,29.92,10.0,WSW,9.2,-,N/A,,Partly Cloudy,250,2013-06-18 19:53:00
3:53 PM,90.0,70.0,52,29.91,10.0,Variable,5.8,-,N/A,,Partly Cloudy,0,2013-06-18 20:53:00
4:53 PM,89.1,72.0,57,29.90,10.0,WNW,6.9,-,N/A,,Partly Cloudy,300,2013-06-18 21:53:00
5:53 PM,87.1,72.0,61,29.89,10.0,Variable,4.6,-,N/A,,Mostly Cloudy,0,2013-06-18 22:53:00
6:53 PM,84.9,71.1,63,29.91,10.0,NNW,5.8,-,N/A,,Partly Cloudy,330,2013-06-18 23:53:00
7:53 PM,84.0,70.0,63,29.92,10.0,North,5.8,-,N/A,,Mostly Cloudy,360,2013-06-19 00:53:00
8:46 PM,77.0,73.4,89,29.96,9.0,WSW,5.8,-,0.01,Rain-Thunderstorm,Light Rain,250,2013-06-19 01:46:00
8:53 PM,77.0,73.9,90,29.97,8.0,WNW,17.3,27.6,0.02,Rain-Thunderstorm,Light Rain,290,2013-06-19 01:53:00
9:05 PM,71.6,69.8,94,29.99,2.5,WNW,16.1,28.8,0.09,Rain-Thunderstorm,Thunderstorms and Rain,300,2013-06-19 02:05:00
9:14 PM,71.6,69.8,94,29.98,4.0,NW,16.1,23.0,0.12,Rain-Thunderstorm,Thunderstorms and Rain,320,2013-06-19 02:14:00
9:24 PM,71.6,69.8,94,29.99,7.0,NNW,11.5,21.9,0.13,Rain-Thunderstorm,Light Thunderstorms and Rain,340,2013-06-19 02:24:00
9:53 PM,71.1,69.1,93,29.99,6.0,NNW,12.7,-,0.19,Rain-Thunderstorm,Thunderstorms and Rain,330,2013-06-19 02:53:00
10:23 PM,71.6,69.8,94,30.02,5.0,NNW,4.6,-,0.08,Rain,Rain,330,2013-06-19 03:23:00
10:53 PM,70.0,69.1,97,30.00,10.0,Calm,Calm,-,0.12,Rain,Light Rain,0,2013-06-19 03:53:00
11:37 PM,71.6,69.8,94,29.99,10.0,Calm,Calm,-,0.02,Rain,Light Rain,0,2013-06-19 04:37:00
11:53 PM,70.0,69.1,97,29.96,10.0,Calm,Calm,-,0.02,,Partly Cloudy,0,2013-06-19 04:53:00